Stations météo

Publicité
Rouen, France (7037): Température de l'air & dewpoint: 14.09.2018 07:00:00 - 20.09.2018 07:00:00 (CEST)Rouen, France (7037): Température de l'air 5cm: 14.09.2018 07:00:00 - 20.09.2018 07:00:00 (CEST)Rouen, France (7037): Température de l'air -20cm & Température de l'air -100cm: 14.09.2018 07:00:00 - 20.09.2018 07:00:00 (CEST)Rouen, France (7037): Vitesse du vent & gusts: 14.09.2018 07:00:00 - 20.09.2018 07:00:00 (CEST)Rouen, France (7037): Direction du vent: 14.09.2018 07:00:00 - 20.09.2018 07:00:00 (CEST)Rouen, France (7037): reduced air pressure: 14.09.2018 07:00:00 - 20.09.2018 07:00:00 (CEST)Rouen, France (7037): visibility: 14.09.2018 07:00:00 - 20.09.2018 07:00:00 (CEST)Rouen, France (7037): Ensoleillement: 14.09.2018 07:00:00 - 20.09.2018 07:00:00 (CEST)Rouen, France (7037): Quantités de précipitations: 14.09.2018 07:00:00 - 20.09.2018 07:00:00 (CEST)
Date & Time tt [°C] td [°C] tt 5cm [°C] tt -20cm [°C] tt -100cm [°C] ff [km/h] ff [knt] fx [km/h] fx [knt] dd ppp [hPa] vv [km] sd [min] rr [mm]
20.09.2018 07:00:00 13,9 13,1 12,3 17,2 16,8 17 9 23 13 SSW 1018,4 15 0 0,0
20.09.2018 06:00:00 13,8 12,7 12,2 17,3 16,8 13 7 25 13 SSW 1018,7 19 0 0,0
20.09.2018 05:00:00 14,4 13,1 12,2 17,3 16,8 17 9 22 12 SW 1018,6 35 0 0,0
20.09.2018 04:00:00 14,5 12,7 12,4 17,4 16,8 14 7 21 11 SW 1018,8 37 0 0,0
20.09.2018 03:00:00 15,1 13,1 12,4 17,5 16,8 16 8 20 11 SSW 1018,3 46 0 0,0
20.09.2018 02:00:00 15,5 12,4 13,6 17,6 16,8 14 8 22 12 SSW 1018,9 52 0 0,0
20.09.2018 01:00:00 16,2 12,6 13,8 17,7 16,8 16 9 20 11 SSW 1018,8 56 0 0,0
20.09.2018 00:00:00 17,1 12,8 12,9 17,8 16,8 15 8 21 11 SW 1018,9 54 0 0,0
19.09.2018 23:00:00 16,9 12,4 13,6 17,8 16,8 13 7 19 11 SW 1019,1 55 0 0,0
19.09.2018 22:00:00 17,0 12,3 12,3 17,9 16,8 13 7 16 9 SSW 1018,9 60 0 0,0
19.09.2018 21:00:00 18,0 12,2 13,3 17,9 16,8 14 7 16 9 SSW 1018,6 60 0 0,0
19.09.2018 20:00:00 20,5 12,5 18,2 17,8 16,8 13 7 29 16 SW 1018,2 60 9 0,0
19.09.2018 19:00:00 22,9 12,5 22,9 17,7 16,8 15 8 36 19 WSW 1018,0 55 53 0,0
19.09.2018 18:00:00 23,6 12,9 24,0 17,6 16,8 26 14 37 20 SW 1017,7 37 50 0,0
19.09.2018 17:00:00 23,6 13,2 25,6 17,4 16,8 24 13 40 21 WSW 1018,1 22 41 0,0
19.09.2018 16:00:00 23,6 13,2 25,4 17,3 16,8 23 13 37 20 WSW 1018,2 23 38 0,0
19.09.2018 15:00:00 22,4 13,5 25,0 17,1 16,8 27 15 39 21 SW 1018,4 24 14 0,0
19.09.2018 14:00:00 22,8 14,1 25,5 17,0 16,8 24 13 43 23 SSW 1018,3 25 37 0,0
19.09.2018 13:00:00 21,8 13,9 23,3 16,9 16,8 26 14 36 20 SW 1018,6 29 31 0,0
19.09.2018 12:00:00 20,9 14,1 22,9 16,8 16,8 24 13 38 20 SW 1018,7 16 55 0,0
19.09.2018 11:00:00 19,7 14,5 20,2 16,8 16,8 28 15 44 24 SSW 1018,5 17 58 0,0
19.09.2018 10:00:00 16,9 14,0 18,1 16,9 16,8 24 13 32 18 SSW 1018,4 18 50 0,0
19.09.2018 09:00:00 15,3 13,7 13,5 16,9 16,8 12 7 23 12 SSW 1017,6 16 11 0,0
19.09.2018 08:00:00 14,2 13,1 13,3 17,0 16,8 16 9 23 12 SSW 1017,3 14 0 0,0
19.09.2018 07:00:00 13,9 12,6 12,7 17,1 16,8 16 8 23 13 SSW 1017,3 14 0 0,0
19.09.2018 06:00:00 13,9 12,5 12,9 17,2 16,8 16 9 20 11 SSW 1016,8 17 0 0,0
19.09.2018 05:00:00 14,5 12,5 13,1 17,3 16,8 15 8 23 12 SSW 1017,3 12 0 0,0
19.09.2018 04:00:00 14,5 12,4 12,1 17,4 16,8 16 9 20 11 SW 1017,4 20 0 0,0
19.09.2018 03:00:00 14,9 12,0 11,9 17,5 16,8 14 7 17 9 SW 1016,9 37 0 0,0
19.09.2018 02:00:00 15,2 12,0 11,9 17,5 16,8 14 8 20 11 SW 1016,6 37 0 0,0
19.09.2018 01:00:00 16,4 12,4 12,9 17,7 16,8 16 9 22 12 SW 1016,4 42 0 0,0
19.09.2018 00:00:00 16,1 13,2 10,6 17,7 16,8 12 6 15 8 SSW 1016,3 20 0 0,0
18.09.2018 23:00:00 15,0 12,9 10,1 17,8 16,8 10 6 13 7 S 1016,1 50 0 0,0
18.09.2018 22:00:00 15,4 12,9 10,2 17,8 16,8 8 4 10 5 SSE 1016,2 20 0 0,0
18.09.2018 21:00:00 17,0 13,3 11,1 17,8 16,8 4 2 5 3 SW 1015,7 58 0 0,0
18.09.2018 20:00:00 19,8 13,3 14,3 17,7 16,8 4 2 11 6 SSW 1015,1 19 16 0,0
18.09.2018 19:00:00 23,1 13,6 23,3 17,6 16,8 8 4 20 11 WSW 1014,8 51 55 0,0
18.09.2018 18:00:00 23,8 13,6 26,5 17,5 16,9 14 8 32 17 SW 1014,8 20 60 0,0
18.09.2018 17:00:00 24,1 13,6 28,0 17,3 16,8 21 12 38 21 SW 1014,9 35 52 0,0
18.09.2018 16:00:00 23,3 13,2 24,8 17,1 16,9 18 10 39 21 WSW 1015,2 20 47 0,0
18.09.2018 15:00:00 22,3 12,5 25,2 16,9 16,8 26 14 40 22 WSW 1015,1 20 34 0,0
18.09.2018 14:00:00 23,8 13,6 27,3 16,7 16,8 22 12 39 21 SW 1014,5 28 55 0,0
18.09.2018 13:00:00 23,9 14,0 27,8 16,6 16,8 23 12 40 22 WSW 1014,2 20 60 0,0
18.09.2018 12:00:00 22,7 14,5 23,1 16,5 16,9 26 14 39 21 SW 1014,2 20 58 0,0
18.09.2018 11:00:00 20,5 14,8 23,0 16,5 16,9 20 11 32 17 WSW 1013,8 39 45 0,0
18.09.2018 10:00:00 19,4 15,7 18,0 16,5 16,9 16 8 22 12 SSW 1013,3 44 17 0,0
18.09.2018 09:00:00 16,9 14,7 13,4 16,6 16,9 15 8 22 12 S 1012,9 17 22 0,0
18.09.2018 08:00:00 15,1 13,6 11,2 16,7 16,9 10 5 18 10 S 1012,4 19 0 0,0
18.09.2018 07:00:00 16,5 14,0 13,0 16,7 16,9 13 7 39 21 WSW 1012,1 35 0 0,0
18.09.2018 06:00:00 14,9 12,6 8,5 16,8 16,9 14 8 20 11 WSW 1012,0 42 0 0,0
18.09.2018 05:00:00 14,7 11,5 9,2 16,9 16,9 12 7 15 8 S 1011,1 52 0 0,0
18.09.2018 04:00:00 16,4 10,5 12,0 16,9 16,9 9 5 16 9 S 1011,0 60 0 0,0
18.09.2018 03:00:00 17,7 9,8 14,2 17,0 16,9 11 6 19 10 S 1010,9 60 0 0,0
18.09.2018 02:00:00 19,5 9,7 18,2 17,1 16,9 14 8 27 15 S 1011,0 60 0 0,0
18.09.2018 01:00:00 20,0 9,3 17,0 17,2 16,9 18 10 26 14 SSE 1011,0 60 0 0,0
18.09.2018 00:00:00 18,4 9,5 10,1 17,2 16,9 13 7 18 10 SSE 1011,2 60 0 0,0
17.09.2018 23:00:00 17,4 9,3 9,3 17,3 16,9 10 6 13 7 SE 1011,7 60 0 0,0
17.09.2018 22:00:00 17,1 8,8 9,5 17,3 16,9 8 5 13 7 SE 1012,2 60 0 0,0
17.09.2018 21:00:00 19,1 8,4 10,9 17,3 16,9 10 5 13 7 SSE 1012,3 60 0 0,0
17.09.2018 20:00:00 20,7 9,3 13,9 17,2 16,9 8 4 11 6 SE 1012,4 60 14 0,0
17.09.2018 19:00:00 25,0 10,1 25,2 17,0 17,0 8 4 17 9 SSE 1012,5 18 48 0,0
17.09.2018 18:00:00 26,6 7,6 29,7 16,8 16,9 14 8 24 13 SSE 1013,0 60 60 0,0
17.09.2018 17:00:00 27,0 7,4 30,5 16,6 17,0 15 8 29 16 SSE 1013,7 60 60 0,0
17.09.2018 16:00:00 26,8 7,8 30,7 16,4 17,0 14 7 29 16 SSE 1014,8 55 60 0,0
17.09.2018 15:00:00 26,2 8,2 29,6 16,2 16,9 19 11 35 19 SSE 1015,7 49 60 0,0
17.09.2018 14:00:00 25,6 9,4 29,9 16,0 16,9 16 9 31 17 SSE 1016,1 45 60 0,0
17.09.2018 13:00:00 24,0 10,6 26,5 15,8 16,9 19 10 27 15 SSE 1017,0 56 60 0,0
17.09.2018 12:00:00 20,6 10,7 23,2 15,8 17,0 12 6 18 10 S 1018,5 60 60 0,0
17.09.2018 11:00:00 17,7 9,6 19,6 15,8 17,0 8 4 19 10 SSE 1019,1 18 60 0,0
17.09.2018 10:00:00 14,6 10,2 15,1 15,9 17,0 12 7 17 9 SE 1019,3 60 60 0,2
17.09.2018 09:00:00 12,3 10,2 5,5 16,0 17,0 0 0 9 5 N 1019,6 53 36 0,0
17.09.2018 08:00:00 8,5 7,9 2,4 16,1 17,0 9 5 11 6 ESE 1019,7 43 9 0,0
17.09.2018 07:00:00 9,2 8,3 3,4 16,3 17,0 6 3 14 8 WSW 1019,7 59 0 0,0
17.09.2018 06:00:00 9,4 8,5 2,4 16,4 17,0 9 5 13 7 SE 1019,5 60 0 0,0
17.09.2018 05:00:00 9,2 8,4 2,7 16,5 17,0 5 3 10 5 ESE 1020,2 60 0 0,0
17.09.2018 04:00:00 8,5 7,3 2,9 16,6 17,0 0 0 4 2 N 1020,8 17 0 0,0
17.09.2018 03:00:00 9,4 8,2 3,0 16,8 17,0 4 2 5 3 SSE 1020,4 60 0 0,0
17.09.2018 02:00:00 10,7 9,8 3,6 16,9 17,0 0 0 6 3 N 1020,8 60 0 0,0
17.09.2018 01:00:00 10,9 9,3 4,3 17,0 17,0 6 3 10 6 SSE 1020,5 60 0 0,0
17.09.2018 00:00:00 11,0 8,6 4,8 17,1 17,0 8 4 10 5 S 1020,6 60 0 0,0
16.09.2018 23:00:00 12,1 9,3 5,7 17,2 17,1 6 3 6 4 S 1021,2 60 0 0,0
16.09.2018 22:00:00 13,6 9,6 7,0 17,2 17,0 2 1 4 2 S 1021,1 60 0 0,0
16.09.2018 21:00:00 14,7 9,5 7,9 17,2 17,0 3 2 5 3 SE 1020,6 60 0 0,0
16.09.2018 20:00:00 17,6 10,9 11,4 17,1 17,0 3 1 7 4 SE 1020,0 60 23 0,0
16.09.2018 19:00:00 21,1 10,6 20,9 17,0 17,0 0 0 6 4 N 1019,7 60 46 0,0
16.09.2018 18:00:00 22,3 11,4 25,6 16,8 17,0 3 1 10 5 S 1019,4 52 60 0,0
16.09.2018 17:00:00 22,0 10,5 25,6 16,6 17,0 7 4 11 6 S 1019,8 54 31 0,0
16.09.2018 16:00:00 21,3 10,5 24,0 16,5 17,0 6 4 13 7 SW 1019,8 16 4 0,0
16.09.2018 15:00:00 20,9 9,5 24,9 16,3 17,1 5 3 11 6 WSW 1020,4 17 36 0,0
16.09.2018 14:00:00 21,3 9,5 23,7 16,1 17,0 5 3 9 5 SSW 1020,9 58 48 0,0
16.09.2018 13:00:00 18,9 10,7 22,2 16,0 17,0 6 4 17 9 S 1021,5 55 28 0,0
16.09.2018 12:00:00 19,1 10,1 20,6 16,0 17,1 11 6 19 11 S 1021,7 52 60 0,0
16.09.2018 11:00:00 16,6 11,1 17,3 16,0 17,1 14 7 21 11 SSE 1021,9 55 60 0,0
16.09.2018 10:00:00 14,6 10,8 14,0 16,1 17,1 9 5 12 7 SE 1022,3 39 60 0,0
16.09.2018 09:00:00 11,7 10,3 3,6 16,2 17,1 7 4 11 6 ESE 1022,3 38 35 0,0
16.09.2018 08:00:00 8,1 7,5 1,3 16,3 17,1 7 4 8 5 ESE 1022,5 18 1 0,0
16.09.2018 07:00:00 8,4 7,8 1,3 16,5 17,1 3 1 13 7 E 1022,6 36 0 0,0
16.09.2018 06:00:00 8,4 7,6 1,8 16,6 17,1 10 5 12 6 ESE 1022,5 45 0 0,0
16.09.2018 05:00:00 9,5 8,6 4,0 16,7 17,1 8 4 13 7 ESE 1022,7 48 0 0,0
16.09.2018 04:00:00 9,2 8,3 3,8 16,8 17,1 10 5 14 7 ESE 1023,1 45 0 0,0
16.09.2018 03:00:00 9,8 8,7 4,0 16,9 17,1 7 4 11 6 E 1023,7 17 0 0,0
16.09.2018 02:00:00 10,8 9,7 5,8 17,0 17,1 9 5 11 6 NE 1023,8 20 0 0,0
16.09.2018 01:00:00 11,3 10,0 9,2 17,1 17,1 9 5 14 8 ENE 1024,3 38 0 0,0
16.09.2018 00:00:00 11,5 10,2 10,1 17,2 17,1 12 6 15 8 ENE 1024,9 36 0 0,0
15.09.2018 23:00:00 13,6 10,9 11,7 17,3 17,2 11 6 15 8 NE 1025,2 40 0 0,0
15.09.2018 22:00:00 13,8 10,2 11,9 17,3 17,2 12 6 14 8 NE 1025,2 45 0 0,0
15.09.2018 21:00:00 15,4 11,2 12,8 17,3 17,2 10 5 14 8 NNE 1024,9 50 0 0,0
15.09.2018 20:00:00 17,3 10,7 15,1 17,2 17,1 9 5 15 8 NNE 1024,5 42 17 0,0
15.09.2018 19:00:00 18,4 10,0 18,3 17,1 17,1 5 3 12 6 NNW 1024,3 58 20 0,0
15.09.2018 18:00:00 20,9 10,4 26,4 16,9 17,1 7 4 14 7 SW 1024,3 57 60 0,0
15.09.2018 17:00:00 20,2 10,6 23,9 16,7 17,1 4 2 16 9 WNW 1024,7 60 46 0,0
15.09.2018 16:00:00 21,3 11,6 21,7 16,5 17,1 7 4 16 9 W 1024,9 18 34 0,0
15.09.2018 15:00:00 20,1 11,8 22,4 16,3 17,1 8 4 17 9 W 1025,5 44 25 0,0
15.09.2018 14:00:00 18,7 11,5 20,8 16,2 17,2 7 4 14 8 W 1025,8 60 11 0,0
15.09.2018 13:00:00 17,9 11,5 21,4 16,1 17,2 8 4 14 8 W 1026,3 14 37 0,0
15.09.2018 12:00:00 17,3 12,2 21,2 16,0 17,2 6 3 14 7 W 1026,6 20 55 0,0
15.09.2018 11:00:00 15,3 13,0 16,6 16,0 17,2 4 2 9 5 W 1026,5 9 47 0,0
15.09.2018 10:00:00 12,4 11,9 13,6 16,1 17,2 7 4 14 7 W 1026,6 1,3 31 0,0
15.09.2018 09:00:00 11,1 10,8 5,0 16,2 17,2 5 3 11 6 SSW 1026,2 11 50 0,0
15.09.2018 08:00:00 7,8 7,5 1,3 16,3 17,2 9 5 11 6 SSW 1025,9 0,4 1 0,0
15.09.2018 07:00:00 7,7 7,3 1,5 16,4 17,2 9 5 11 6 WSW 1025,4 0,4 0 0,0
15.09.2018 06:00:00 7,9 7,5 1,9 16,6 17,2 7 4 12 7 WSW 1025,0 5 0 0,2
15.09.2018 05:00:00 8,5 8,1 2,2 16,7 17,2 8 5 14 8 W 1025,0 20 0 0,0
15.09.2018 04:00:00 8,1 7,7 2,4 16,9 17,2 10 6 13 7 W 1024,9 46 0 0,0
15.09.2018 03:00:00 8,1 7,5 2,4 17,0 17,2 10 6 13 7 WSW 1025,1 18 0 0,0
15.09.2018 02:00:00 8,9 8,3 2,8 17,1 17,2 9 5 11 6 SW 1025,3 50 0 0,0
15.09.2018 01:00:00 8,8 8,0 3,3 17,2 17,2 4 2 8 4 WSW 1025,2 20 0 0,0
15.09.2018 00:00:00 9,2 8,3 3,8 17,3 17,2 5 3 12 6 W 1024,8 60 0 0,0
14.09.2018 23:00:00 9,5 8,6 4,1 17,4 17,2 11 6 12 7 SW 1024,4 60 0 0,0
14.09.2018 22:00:00 10,5 8,6 4,9 17,4 17,2 5 3 14 7 WSW 1024,2 60 0 0,0
14.09.2018 21:00:00 13,3 9,0 11,3 17,4 17,2 10 5 22 12 W 1024,0 60 0 0,0
14.09.2018 20:00:00 15,3 8,1 15,1 17,4 17,3 14 8 28 15 WNW 1023,2 60 5 0,0
14.09.2018 19:00:00 16,0 8,2 16,4 17,3 17,2 15 8 26 14 W 1022,9 57 30 0,0
14.09.2018 18:00:00 16,7 8,4 18,0 17,3 17,2 15 8 27 15 WNW 1022,7 60 20 0,0
14.09.2018 17:00:00 16,7 8,1 17,6 17,2 17,2 19 11 31 17 WNW 1022,8 48 0 0,0
14.09.2018 16:00:00 17,2 9,6 18,8 17,0 17,2 13 7 25 13 WNW 1022,6 47 13 0,0
14.09.2018 15:00:00 17,2 9,9 20,1 16,8 17,2 14 8 41 22 WNW 1022,8 37 40 0,0
14.09.2018 14:00:00 17,3 9,7 19,7 16,6 17,2 12 7 21 12 W 1022,7 59 23 0,0
14.09.2018 13:00:00 18,2 10,6 19,4 16,5 17,2 10 5 20 11 W 1022,7 57 49 0,0
14.09.2018 12:00:00 16,7 11,0 21,9 16,5 17,2 9 5 16 9 WSW 1023,1 33 60 0,0
14.09.2018 11:00:00 15,1 10,9 20,0 16,5 17,2 10 6 18 10 W 1023,2 26 60 0,0
14.09.2018 10:00:00 12,6 10,5 11,7 16,6 17,2 5 3 9 5 WSW 1023,1 11 60 0,0
14.09.2018 09:00:00 9,7 9,4 2,8 16,8 17,2 5 3 8 4 W 1023,1 3,6 56 0,0
14.09.2018 08:00:00 7,3 7,0 0,3 16,9 17,2 3 2 9 5 SSW 1023,0 0,3 3 0,0
14.09.2018 07:00:00 6,7 6,3 0,4 17,1 17,2 3 2 4 2 WNW 1022,7 1,5 0 0,0

tt = Température de l'air
td = dewpoint
tt 5cm = Température de l'air 5cm
tt -20cm = Température de l'air -20cm
tt -100cm = Température de l'air -100cm
ff = Vitesse du vent
fx = gusts
dd = Direction du vent
ppp = reduced air pressure
vv = visibility
sd = Ensoleillement
rr = Quantités de précipitations

stations d'obs. à proximité